Regional Weather Roundup
Issued by NWS Boston, MA

Home | Current Version | Previous Version | Text Only | Print | Product List | Glossary On
Versions: 1 2 3 4 5 6 7 8 9 10 11 12 13 14 15 16 17 18 19 20 21 22 23 24 25 26 27
000
ASUS41 KBOX 222210
RWRBOX

REGIONAL WEATHER ROUNDUP
NATIONAL WEATHER SERVICE TAUNTON MA
500 PM EST WED NOV 22 2017

NOTE:  "FAIR" INDICATES FEW OR NO CLOUDS BELOW 12,000 FEET WITH NO
SIGNIFICANT WEATHER AND/OR OBSTRUCTIONS TO VISIBILITY.

MAZALL-222300-
EASTERN MASSACHUSETTS

CITY           SKY/WX    TMP DP  RH WIND       PRES   REMARKS
BOSTON         LGT RAIN  45  43  93 NW13      29.81R
BEVERLY        LGT RAIN  44  42  93 NW14G22   29.80S
LAWRENCE       LGT RAIN  45  40  82 NW10G18   29.84R
BEDFORD        LGT RAIN  44  41  89 NW13      29.82R FOG
BLUE HILL        N/A     43  41  93 NW17G26   29.78S
NORWOOD        LGT RAIN  48  45  89 NW6       29.81S
MARSHFIELD     CLOUDY    46  45  93 NW13G24   29.78R FOG
PLYMOUTH       LGT RAIN  47  44  90 NW10      29.78R
TAUNTON        LGT RAIN  47  45  93 NW6       29.79S FOG
NEW BEDFORD    LGT RAIN  47  44  90 NW9       29.78R
$$

MAZALL-222300-
CAPE COD AND THE ISLANDS

CITY           SKY/WX    TMP DP  RH WIND       PRES   REMARKS
FALMOUTH       DRIZZLE   46  45  93 N12G23    29.77R
HYANNIS        LGT RAIN  47  45  93 NW18G29   29.74R FOG
CHATHAM        LGT RAIN  52  52 100 VRB3      29.72S
PROVINCETOWN   LGT RAIN  47  45  93 NW23G30     N/A
NANTUCKET      LGT RAIN  51  51 100 NW8       29.71S FOG
MARTHAS VNYRD  LGT RAIN  47  45  93 N20G25    29.74S
$$

MAZALL-222300-
CENTRAL AND WESTERN MASSACHUSETTS

CITY           SKY/WX    TMP DP  RH WIND       PRES   REMARKS
WORCESTER      CLOUDY    40  35  83 NW21G29   29.83R WCI  30
FITCHBURG      CLOUDY    44  39  82 NW14G22   29.86R
ORANGE         CLOUDY    39  34  82 N15G28    29.89R WCI  31
SPRINGFIELD    MOCLDY    41  32  70 N13G21    29.88R
WESTFIELD      CLOUDY    41  34  76 NW17      29.90R
NORTH ADAMS    CLOUDY    38  29  70 W10       29.93S WCI  31
PITTSFIELD     MOCLDY    36  26  67 W14G22    29.92R WCI  27
$$

RIZALL-222300-
RHODE ISLAND

CITY           SKY/WX    TMP DP  RH WIND       PRES   REMARKS
PROVIDENCE     CLOUDY    47  45  93 NW13G24   29.82R
NEWPORT        CLOUDY    47  44  90 NW14      29.79R
BLOCK ISLAND   CLOUDY    47  44  90 NW14G25   29.82R
SMITHFIELD     CLOUDY    44  42  93 NW13      29.82R
WESTERLY       CLOUDY    47  43  86 NW12G20   29.84R
$$

CTZALL-222300-
CONNECTICUT

CITY           SKY/WX    TMP DP  RH WIND       PRES   REMARKS
BRADLEY INTL   MOCLDY    42  32  67 NW10      29.91R
HARTFORD       CLOUDY    43  33  68 NW12G20   29.92R
BRIDGEPORT     CLEAR     44  30  57 NW13G24   29.92R
DANBURY        PTCLDY    42  30  62 NW7       29.95R
GROTON         CLOUDY    45  38  76 NW16G26   29.85R
NEW HAVEN      CLEAR     44  30  57 N21G29    29.92R
CHESTER        FAIR      43  34  70 NW16G28   29.88R
MERIDEN        CLEAR     42  30  62 NW13G26   29.92R
WILLIMANTIC    CLOUDY    44  38  79 NW12G20   29.88R
OXFORD         CLEAR     38  29  70 N13G20    29.91R WCI  30
$$

MEZ002-015-021-024-NHZ003-005-008-011-012-014-VTZ005-008-222300-
NORTHERN NEW ENGLAND

CITY           SKY/WX    TMP DP  RH WIND       PRES   REMARKS
PORTLAND ME    LGT RAIN  41  39  93 VRB6      29.80S
BANGOR ME      LGT RAIN  40  39  97 N13       29.78S
CONCORD NH     CLOUDY    39  35  86 NW10      29.86R
MANCHESTER NH  MOCLDY    42  37  82 NW15G24   29.83R
NASHUA NH      CLOUDY    42  38  85 NW16      29.85R
PORTSMOUTH NH  LGT RAIN  43  40  90 NW13G20   29.79S
JAFFREY NH     CLOUDY    38  34  85 N8G18     29.86R
KEENE NH       CLOUDY    38  34  85 NW3       29.90S
BURLINGTON VT  CLOUDY    37  30  75 N12       29.99R WCI  29
MT. WASHINGTON DRFTSNOW  16  16 100 NW39        N/A  VSB 1/16WCI  -7
$$

NYZ052-076-222300-
EASTERN NEW YORK

CITY           SKY/WX    TMP DP  RH WIND       PRES   REMARKS
ALBANY         CLOUDY    38  30  73 W17       30.00R WCI  28
NEW YORK CITY  MOCLDY    46  31  55 NW25G32   29.96R
$$

ANZALL-222300-
MARINE OBSERVATIONS

STATION/POSITION TIME  TEMP    WIND        PRES    VSBY  WAVE
                       AIR SEA DIR/SP/G                  HT/PER
                 (UTC) (F)     (DEG/KT/KT) (MB)    (MI)  (FT/S)
BOSTON BUOY      2150   47 51  320/ 21/ 25 1007.6R         3/ 3
BUZZARDS BAY     2100   48     340/ 28/ 31 1007.7R
NANTUCKET SOUND  2150   50 50  330/  6/  6 1006.4R         1/ 5
MASS BAY-STELLWA 2104   48 49  330/ 17/ 19 1007.3R         2/ 6
ISLE OF SHOALS   2200   44     310/ 19/ 20 1008.4F
S OF BLOCK IS    NOT AVBL
$$

......................KEY.........................
  SKY/WX - SKY CONDITION/PRESENT WEATHER
  TMP    - TEMPERATURE IN FAHRENHEIT
  DWPT   - DEWPOINT IN FAHRENHEIT
  RH     - RELATIVE HUMIDITY IN PERCENT
  WIND   - DIRECTION AND SPEED IN MPH
  PRES   - MEAN SEA LEVEL PRESSURE IN INCHES OF HG
  WCI    - WIND CHILL INDEX
  VSB    - VISIBILITY IN MILES
  HX     - HEAT INDEX
  TC     - TEMPERATURE IN CELSIUS
  VRB    - VARIABLE WIND DIRECTION
  N/A    - NOT AVAILABLE




USA.gov is the U.S. government's official web portal to all federal, state and local government web resources and services.